Location: Unspecified
(51.0950°N, 12.9690°E)
Time: 15:45:49
(UTC+00:00)

Cosmos 1624 Rocket - Pass Details

Date: 28 October 2021
Orbit: 757 x 784 km, 74.0° (Epoch: 02 December)

Event Time Altitude Azimuth Distance (km) Brightness Sun altitude
Rises 18:53:30 0° 215° (SW) 3,252 7.5 -29.3°
Reaches altitude 10° 18:55:54 10° 219° (SW) 2,331 6.7 -29.7°
Maximum altitude 19:01:08 59° 299° (WNW) 904 4.5 -30.4°
Enters shadow 19:01:16 59° 306° (NW) 905 4.5 -30.5°
